CW9769 Weather Reports


Display with metric or nautical units.
time (UTC)temp
F
wind
direction
speed
MPH
gust
MPH
rain 1hr
in
rain 24hr
in
rain mn
in
humidity
%
barometer
mb
20260502163424 43 47 2.0 9.0 0.00 0.20 0.04 73 1017.7
20260502162423 43 45 4.0 9.0 0.00 0.20 0.04 70 1017.4
20260502161421 43 61 5.0 12.0 0.00 0.20 0.04 67 1017.4
20260502160420 42 52 3.0 12.0 0.00 0.20 0.04 72 1017.7
20260502151406 41 101 3.0 8.0 0.00 0.26 0.04 79 1017.7
20260502150405 41 113 3.0 9.0 0.00 0.27 0.04 80 1017.7
20260502130221 37 52 4.0 12.0 0.00 0.44 0.04 90 1016.6
20260502123218 37 69 4.0 11.0 0.01 0.45 0.04 91 1016.6
20260502122217 36 54 4.0 8.0 0.01 0.45 0.04 92 1016.6
20260502121216 36 62 4.0 8.0 0.01 0.45 0.04 91 1016.3
20260502120143 36 69 3.0 8.0 0.01 0.45 0.04 92 1016.3
20260502115141 36 62 3.0 6.0 0.01 0.46 0.04 93 1016.3
20260502114109 35 50 3.0 6.0 0.01 0.45 0.03 93 1016.0
20260502113108 35 58 2.0 8.0 0.01 0.45 0.03 94 1016.0
20260502112108 35 37 3.0 13.0 0.01 0.45 0.03 93 1016.0
20260502111107 35 40 5.0 15.0 0.01 0.45 0.03 92 1015.7
20260502110106 35 37 10.0 15.0 0.01 0.45 0.03 92 1015.7
20260502105105 36 18 8.0 14.0 0.01 0.45 0.03 92 1015.7
20260502104105 36 15 8.0 14.0 0.00 0.45 0.02 91 1015.4
20260502103104 36 336 6.0 10.0 0.00 0.45 0.02 93 1015.4
20260502102103 36 346 4.0 7.0 0.01 0.45 0.02 93 1015.3
20260502101103 36 5 3.0 6.0 0.01 0.45 0.02 92 1015.4
20260502091059 37 106 0.0 0.0 0.00 0.44 0.01 94 1015.0
20260502071049 39 238 0.0 0.0 0.00 0.44 0.01 92 1014.7
20260502070017 39 238 0.0 1.0 0.00 0.44 0.01 92 1014.7
20260502065016 39 238 0.0 3.0 0.01 0.44 0.01 91 1015.0
20260502063842 40 268 2.0 3.0 0.01 0.44 0.01 92 1015.0
20260502062841 40 312 0.0 3.0 0.01 0.44 0.01 91 1015.0
20260502061839 40 313 1.0 3.0 0.01 0.44 0.01 91 1015.0
20260502060838 40 304 2.0 2.0 0.01 0.44 0.01 92 1015.0
20260502055838 40 309 1.0 2.0 0.01 0.44 0.01 92 1015.0
20260502054837 40 288 1.0 2.0 0.00 0.43 0.00 93 1015.4
20260502053804 40 288 1.0 2.0 0.00 0.43 0.00 93 1015.4
20260502052804 39 300 0.0 2.0 0.00 0.43 0.00 92 1015.4
20260502051803 39 300 1.0 2.0 0.00 0.43 0.00 92 1015.4
20260502050802 40 301 1.0 2.0 0.00 0.43 0.00 92 1015.4
20260502045802 39 300 2.0 2.0 0.00 0.43 0.00 92 1015.4
20260502044801 39 291 0.0 2.0 0.00 0.43 0.00 92 1015.4
20260502043729 39 291 1.0 1.0 0.00 0.43 0.00 91 1015.4
20260502042657 40 291 1.0 2.0 0.00 0.43 0.00 90 1015.4
20260502041656 40 291 1.0 3.0 0.00 0.43 0.00 90 1015.7
20260502040656 40 282 1.0 5.0 0.01 0.43 0.00 89 1015.4
20260502035655 40 260 2.0 5.0 0.05 0.43 0.43 89 1015.4
20260502034654 40 269 2.0 5.0 0.09 0.43 0.43 90 1015.4
20260502033653 40 262 1.0 2.0 0.11 0.43 0.43 90 1015.7
20260502032652 39 252 1.0 4.0 0.11 0.43 0.43 90 1015.4
20260502031652 40 297 0.0 4.0 0.11 0.43 0.43 89 1015.7
20260502030651 40 352 3.0 13.0 0.10 0.42 0.42 88 1015.7
20260502025650 40 344 5.0 14.0 0.06 0.38 0.38 89 1015.7
20260502024615 42 351 9.0 13.0 0.01 0.33 0.33 87 1015.8
20260502023615 43 11 5.0 9.0 0.00 0.32 0.32 86 1015.5
20260502022614 42 265 1.0 2.0 0.00 0.32 0.32 86 1015.5
20260502021613 42 265 1.0 3.0 0.00 0.32 0.32 85 1015.5
20260502020612 42 265 1.0 3.0 0.00 0.32 0.32 86 1015.1
20260502015611 42 258 1.0 2.0 0.00 0.32 0.32 87 1015.5
20260502014611 41 254 1.0 2.0 0.00 0.32 0.32 86 1015.1
20260502013538 41 260 1.0 2.0 0.00 0.32 0.32 85 1015.1
20260502012537 42 9 0.0 2.0 0.00 0.32 0.32 84 1015.1
20260502011536 42 9 2.0 2.0 0.00 0.32 0.32 84 1014.8
20260502010535 42 9 0.0 0.0 0.00 0.32 0.32 85 1014.8
20260502005503 43 9 0.0 0.0 0.00 0.32 0.32 84 1014.8
20260502004431 43 9 0.0 1.0 0.00 0.32 0.32 83 1014.8
20260502003430 43 9 0.0 3.0 0.00 0.32 0.32 81 1014.5
20260502002429 43 9 1.0 3.0 0.00 0.32 0.32 79 1014.5
20260502001428 43 10 2.0 2.0 0.00 0.32 0.32 79 1014.5
20260502000428 44 348 2.0 4.0 0.00 0.32 0.32 79 1014.2
20260501235354 44 352 2.0 4.0 0.00 0.32 0.32 77 1014.2
20260501234353 44 1 3.0 5.0 0.00 0.32 0.32 75 1014.2
20260501233353 45 3 3.0 5.0 0.00 0.32 0.32 72 1014.2
20260501232352 45 14 1.0 3.0 0.00 0.32 0.32 72 1014.2
20260501231351 47 10 2.0 4.0 0.00 0.32 0.32 71 1014.3
20260501230318 47 31 2.0 5.0 0.00 0.32 0.32 67 1014.3
20260501225317 47 50 2.0 9.0 0.00 0.32 0.32 71 1013.9
20260501224316 46 29 3.0 9.0 0.00 0.32 0.32 77 1013.9
20260501223213 45 67 2.0 8.0 0.00 0.32 0.32 75 1013.9
20260501222141 45 41 4.0 8.0 0.00 0.32 0.32 76 1013.9
20260501221139 45 45 5.0 9.0 0.00 0.32 0.32 75 1013.9
20260501220138 46 30 6.0 10.0 0.00 0.32 0.32 73 1013.9
20260501215106 46 24 6.0 10.0 0.00 0.32 0.32 73 1013.9
20260501214105 45 31 5.0 9.0 0.00 0.32 0.32 77 1013.9
20260501213105 45 29 4.0 10.0 0.00 0.32 0.32 75 1013.6
20260501212104 44 54 3.0 10.0 0.00 0.32 0.32 77 1013.6
20260501211103 45 56 5.0 9.0 0.00 0.32 0.32 76 1013.6
20260501205102 45 74 4.0 9.0 0.00 0.32 0.32 77 1013.3
20260501204100 45 56 4.0 9.0 0.00 0.32 0.32 79 1013.3
20260501203100 45 67 3.0 11.0 0.00 0.32 0.32 82 1013.3
20260501202059 44 43 7.0 11.0 0.00 0.32 0.32 79 1013.2
20260501201057 44 57 5.0 9.0 0.00 0.32 0.32 83 1012.9
20260501200055 43 57 2.0 9.0 0.00 0.32 0.32 83 1013.2
20260501195054 43 52 4.0 10.0 0.00 0.32 0.32 84 1013.2
20260501194054 42 72 6.0 14.0 0.00 0.32 0.32 84 1013.2
20260501193053 42 61 9.0 14.0 0.01 0.32 0.32 85 1013.2
20260501192020 42 46 8.0 13.0 0.01 0.32 0.32 88 1012.8
20260501191019 42 71 7.0 13.0 0.02 0.32 0.32 89 1012.8
20260501185947 42 53 5.0 13.0 0.03 0.32 0.32 89 1012.8
20260501184946 42 68 6.0 13.0 0.03 0.32 0.32 89 1012.5
20260501183946 42 58 7.0 13.0 0.03 0.31 0.31 88 1012.5
20260501182944 42 78 5.0 11.0 0.03 0.31 0.31 88 1012.5
20260501181943 42 64 5.0 11.0 0.03 0.31 0.31 88 1012.5
20260501180942 42 65 6.0 11.0 0.02 0.30 0.30 88 1012.1
20260501175941 42 58 7.0 11.0 0.01 0.29 0.29 88 1012.1
20260501174940 42 46 7.0 11.0 0.02 0.29 0.29 88 1012.2
20260501173939 42 40 6.0 12.0 0.01 0.28 0.28 88 1012.1
20260501172939 42 47 4.0 12.0 0.01 0.28 0.28 88 1011.8
20260501171937 42 53 5.0 12.0 0.01 0.28 0.28 88 1011.8
20260501170936 42 57 6.0 12.0 0.01 0.28 0.28 89 1011.8
20260501165936 42 62 7.0 10.0 0.01 0.28 0.28 88 1011.8